User: anonymous   Login
Location: Newark
(13.8625°N, 100.5144°E)
Time: 18:53:08
(UTC+00:00)
Language:

DELFI C3 - Orbit

View from above orbital plane
View from above orbital plane
View from above satellite
View from above satellite

Ground track
Ground track

The orbit data is extracted from the following two-line orbital elements,

1 32789U 08021G   21204.55263447  .00002860  00000-0  18370-3 0  9993
2 32789  97.3739 238.5264 0012296  27.4503 332.7373 15.09157674722273
Epoch (UTC): 23 July 2021 13:15:47
Eccentricity: 0.0012296
inclination: 97.3739°
perigee height: 530 km
apogee height: 547 km
right ascension of ascending node: 238.5264°
argument of perigee: 27.4503°
revolutions per day: 15.09157674
mean anomaly at epoch: 332.7373°
orbit number at epoch: 72227

The dashed part of the orbit path shows where the satellite is in the earth's shadow,  

DLR